Home > Time Zones > World Clock > Weather > Spain > Jaén > Past weeks

Flag for Spain Weather past 2 weeks in Jaén, Spain

Now
28 °F

Clear.


Feels Like: 28 °F
Forecast: 35 / 68 °F
Wind: 1 mph from North

Location: Granada / Aeropuerto

Current Time: Mar 6, 2015 at 7:34:23 AM

Latest Report: Mar 6, 2015 at 7:00 AM


Visibility: 10 mi

Pressure: 30.39 "Hg

Humidity: 86%

Dew point: 25 °F

Location of JaénLocation

Historic Weather in Jaén — Graph

°F

Jaén temperature yesterday

Maximum temperature yesterday: 63 °F (at 2:00 PM)
Minimum temperature yesterday: 41 °F (at 8:00 AM)
Average temperature yesterday: 52 °F

Past Weeks' High & Low Weather Summary

 TemperatureHumidityPressure
High79 °F (Mar 2, 4:00 PM)100% (Feb 20, 6:00 AM)30.45 "Hg (Feb 20, 6:00 AM)
Low28 °F (Mar 6, 6:00 AM)29% (Feb 25, 3:30 PM)29.83 "Hg (Feb 21, 2:30 PM)
Average52 °F67%30.23 "Hg
* Reported Feb 19 6:00 AM — Mar 6 6:30 AM, Jaén, Weather by CustomWeather, © 2015

Note: Actual official high and low records may vary slightly from our data, if they occured in-between our weather recording intervals... More about our weather records

Advertising

Jaén weather history for previous 24 hours

 ConditionsComfort  
Time TempWeatherWind HumidityBarometerVisibility
6:30 AM
Fri, Mar 6
28 °FClear.1 mph93%30.39 "Hg10 mi
6:00 AM28 °FClear.2 mph93%30.39 "Hg10 mi
11:00 PM
Thu, Mar 5
43 °FClear.1 mph61%30.39 "Hg10 mi
10:30 PM45 °FClear.1 mph57%30.39 "Hg10 mi
10:00 PM43 °FClear.2 mph66%30.39 "Hg10 mi
9:30 PM46 °FClear.2 mph53%30.39 "Hg10 mi
9:00 PM46 °FClear.No wind57%30.39 "Hg10 mi
8:30 PM48 °FClear.1 mph54%30.36 "Hg10 mi
8:00 PM48 °FPassing clouds.10 mph54%30.36 "HgN/A
7:30 PM50 °FPassing clouds.9 mph54%30.33 "HgN/A
7:00 PM54 °FSunny.12 mph51%30.33 "Hg10 mi
6:30 PM55 °FPassing clouds.15 mph47%30.33 "HgN/A
6:00 PM57 °FPassing clouds.14 mph44%30.33 "HgN/A
5:30 PM59 °FPassing clouds.14 mph42%30.30 "HgN/A
5:00 PM59 °FPassing clouds.15 mph42%30.30 "HgN/A
4:30 PM59 °FPassing clouds.15 mph42%30.30 "HgN/A
4:00 PM61 °FPassing clouds.15 mph39%30.33 "HgN/A
3:30 PM61 °FPassing clouds.15 mph36%30.33 "HgN/A
3:00 PM61 °FPassing clouds.14 mph39%30.33 "HgN/A
2:30 PM61 °FPassing clouds.13 mph39%30.33 "HgN/A
2:00 PM63 °FPassing clouds.10 mph42%30.36 "HgN/A
1:30 PM61 °FPassing clouds.1 mph34%30.36 "HgN/A
1:00 PM59 °FPassing clouds.2 mph31%30.39 "HgN/A
12:30 PM57 °FPassing clouds.1 mph36%30.39 "HgN/A
12:00 PM57 °FSunny.1 mph29%30.39 "Hg10 mi
11:30 AM55 °FSunny.No wind33%30.42 "Hg10 mi
11:00 AM54 °FSunny.1 mph33%30.42 "Hg10 mi
10:30 AM52 °FSunny.No wind35%30.42 "Hg10 mi
10:00 AM50 °FSunny.No wind37%30.42 "Hg10 mi
9:30 AM48 °FSunny.1 mph37%30.42 "Hg10 mi
9:00 AM46 °FSunny.No wind43%30.42 "Hg10 mi
8:30 AM43 °FSunny.No wind53%30.39 "Hg10 mi
8:00 AM41 °FSunny.2 mph49%30.39 "Hg10 mi
7:30 AM45 °FPassing clouds.5 mph34%30.36 "HgN/A
7:00 AM45 °FPassing clouds.3 mph42%30.36 "HgN/A
Weather by CustomWeather, © 2015

See weather overviewHow to use our weather pages